sat.trackr.live / text

‹ back to catalog

STARLINK-2672

NORAD 48650 · 2021-044N

PAYLOAD ACTIVE UNKNOWN

§ Identity

Operator
Country
US
Launch date
2021-05-26
Launch site
AFETR
Launch vehicle
Mass (kg)
RCS (m²)

Purposes: comms

External: N2YO · Heavens-Above · Gunter

§ Orbital elements

Epoch: 2026-05-25T05:07:25.370976Z

Period
94.01 min
Inclination
53.1570°
Eccentricity
0.0001036
Mean motion
15.31706510 rev/d
Perigee alt
470.0 km
Apogee alt
471.4 km
Semi-major
6,848.9 km
B*
9.9221e-5
RAAN
118.0351°
Arg perigee
95.0006°
Mean anomaly
265.1114°
Rev number
27,554

§ Raw data

STARLINK-26721 48650U 21044N   26145.21348809  .00002716  00000+0  99221-4 0  99992 48650  53.1570 118.0351 0001036  95.0006 265.1114 15.31706510275547

JSON: /api/v1/satellites/48650 · /tle

For live sub-satellite position, see the globe view (requires WebGL).

§ Visibility from observer

Set your observer location to see the next 7 days of passes ≥ 10°. The values pass through the URL so the page stays shareable.

No JS? Fill the form by hand. The geolocation button needs JavaScript.